Theta_e
308 295 288 289 295 298 300 303 301 300 305 307 307 313 311 313 316 313 326 332 332 343 342 339 337 335 334 333 332 330 331 331
300 289 292 295 297 300 301 301 302 303 304 310 314 314 313 314 314 310 323 330 335 346 342 339 336 335 334 333 332 331 332 332
296 293 295 298 300 300 300 301 300 304 305 306 314 315 314 312 312 309 309 324 333 346 341 339 337 335 334 332 332 332 332 331
293 293 297 298 301 302 301 301 301 305 305 305 312 312 311 310 310 316 315 313 315 336 343 339 335 335 336 336 333 332 332 331
296 294 296 299 301 300 299 300 300 304 302 304 307 310 309 308 308 309 309 310 311 311 318 326 330 334 332 333 331 330 330 331
294 294 294 300 301 301 302 302 309 310 301 298 304 308 308 307 306 306 307 309 309 311 316 317 321 329 326 327 326 327 328 328
293 296 296 298 297 303 306 305 307 308 306 307 308 308 307 305 304 306 310 309 310 316 317 317 319 320 321 324 324 323 322 324
300 299 297 300 301 303 304 304 305 306 308 309 309 306 305 303 304 306 309 312 316 317 316 317 320 314 315 321 320 319 319 317
301 302 301 301 301 304 303 300 303 303 304 306 306 305 305 305 304 305 309 315 317 315 317 315 314 314 316 319 320 320 318 320
302 303 301 301 303 303 304 303 308 308 306 305 305 304 305 306 308 310 312 314 317 315 317 315 315 314 315 318 321 319 315 315
304 302 302 304 301 302 302 307 308 307 306 305 304 305 307 308 310 312 312 314 315 315 315 316 315 315 314 319 321 317 316 316
302 301 301 299 301 302 304 308 307 305 303 304 305 305 306 309 310 314 314 313 314 316 316 316 315 314 316 317 317 317 315 317
300 301 299 301 299 299 306 307 306 304 304 305 305 307 307 309 313 314 315 315 315 316 317 316 315 317 317 317 317 317 317 319
298 301 301 300 293 302 305 304 303 303 304 304 305 307 308 312 314 315 313 315 313 320 316 316 316 317 318 318 317 317 318 319
296 301 301 297 294 303 304 304 303 302 303 303 304 306 307 313 316 315 315 315 313 314 318 317 316 317 317 318 318 319 320 320
295 298 299 295 294 301 303 303 303 301 302 303 304 305 309 312 316 316 317 316 316 314 317 317 317 317 317 317 319 321 322 323
298 300 298 296 295 299 301 303 301 300 300 301 303 306 309 312 316 318 318 314 315 312 314 316 314 313 315 315 317 319 322 324
298 300 297 296 296 299 301 303 303 301 300 301 302 304 308 311 311 315 316 316 315 314 312 314 315 315 316 316 318 318 320 322
296 299 298 296 294 297 301 303 305 302 302 302 302 303 306 310 308 312 314 312 316 316 311 313 315 316 316 317 319 318 319 322
299 295 289 297 285 294 298 300 303 301 300 300 302 304 307 309 307 310 315 316 316 316 315 314 311 313 313 313 314 317 319 323
Wind_Speed
4 3 5 6 5 6 5 5 4 2 2 5 2 3 4 4 2 4 7 10 10 17 16 15 11 10 9 9 9 9 8 7
3 4 3 7 7 8 6 2 2 5 6 5 5 3 5 6 2 4 8 11 13 15 13 11 11 10 9 10 11 11 11 11
3 5 4 4 5 10 7 7 4 6 3 3 1 7 8 7 5 4 5 5 7 13 12 10 9 10 11 13 14 13 12 12
3 3 3 3 5 7 6 5 5 7 6 3 3 5 6 3 7 7 7 4 4 2 9 9 10 12 14 14 15 13 15 14
8 8 2 5 2 3 5 4 2 8 5 4 2 3 5 7 8 6 6 7 3 2 5 7 8 11 7 9 12 9 11 14
5 4 3 3 3 6 9 2 3 5 6 4 3 3 7 8 7 7 5 2 3 4 5 6 6 7 7 7 6 10 14 15
3 5 4 4 4 0 1 7 4 3 5 8 6 6 9 7 7 6 4 3 2 5 5 4 2 4 6 7 6 7 8 10
5 7 7 8 7 6 4 6 5 6 7 7 7 8 9 7 6 6 6 6 5 4 4 4 3 3 3 3 3 3 3 4
5 6 9 6 5 5 9 3 3 6 7 4 7 8 9 5 3 4 5 4 3 2 2 3 4 3 2 2 2 2 3 2
4 5 5 5 6 4 3 6 9 7 8 6 9 8 7 6 6 7 6 3 1 2 2 3 2 2 3 3 2 2 3 4
6 8 5 7 3 7 7 9 8 10 8 9 8 7 5 4 5 6 5 5 5 3 3 3 3 3 3 3 2 3 3 4
5 6 6 5 3 6 5 8 8 10 9 8 9 7 4 4 5 5 4 5 3 4 4 4 2 3 4 3 3 3 3 3
6 7 5 5 0 5 9 9 9 9 8 8 8 7 6 3 5 4 2 3 4 2 4 3 3 4 4 4 2 2 2 4
6 7 2 9 9 7 10 10 9 10 8 8 6 7 5 6 5 3 1 3 4 3 3 3 4 4 4 4 3 3 2 3
4 8 6 5 7 5 10 9 9 10 8 8 6 5 5 6 6 3 0 1 3 5 3 2 3 3 4 5 3 2 1 2
6 6 6 6 8 8 10 10 10 10 8 8 7 6 5 7 6 4 1 2 0 4 2 1 2 3 3 3 3 3 3 3
4 6 7 11 7 13 11 7 10 8 9 8 8 7 5 6 5 4 1 3 4 4 3 3 2 2 3 3 3 3 4 5
7 8 8 8 13 9 11 13 14 13 9 10 6 6 5 6 4 3 1 0 3 3 2 2 1 2 1 1 2 2 3 5
6 1 6 4 6 5 7 2 9 8 9 8 11 9 7 7 5 4 2 2 2 2 2 1 4 3 2 2 3 4 4 4
6 7 7 5 6 5 6 8 11 11 10 10 9 6 7 7 5 4 5 2 4 3 2 1 3 4 4 2 2 2 2 4
Wind_Direction
110 126 184 187 219 177 193 154 130 121 81 104 125 72 121 225 203 40 143 171 186 195 200 207 208 214 226 228 230 234 234 228
101 220 246 174 190 174 148 326 201 121 77 52 314 101 163 211 211 239 172 178 193 197 206 216 219 227 240 246 238 233 231 236
249 228 174 225 199 152 163 174 164 122 105 101 309 159 182 215 235 269 102 181 216 201 211 222 238 250 254 255 247 238 237 240
257 225 184 232 207 128 147 156 148 89 115 165 225 164 223 16 62 99 123 107 74 116 214 231 248 253 255 253 247 245 251 246
247 160 150 216 195 132 125 109 92 137 113 170 186 161 93 72 74 79 67 102 146 68 356 332 307 290 303 313 243 262 263 250
14 146 207 226 175 134 132 151 132 112 161 167 182 139 86 61 48 55 66 69 40 43 49 38 25 46 13 353 319 286 274 263
154 141 209 190 155 168 152 126 47 78 128 126 153 81 58 38 17 17 3 344 60 58 37 360 101 19 16 349 340 308 288 278
199 166 180 190 159 157 132 82 72 73 65 86 80 72 69 57 22 9 338 350 63 52 28 10 31 20 346 322 287 287 275 265
172 160 151 140 152 172 122 87 156 158 140 118 89 69 69 51 14 330 306 19 34 45 24 23 22 4 321 302 286 298 300 270
185 77 124 155 151 92 113 168 161 151 142 121 89 82 83 53 4 345 2 17 352 2 354 22 25 336 299 284 286 288 282 287
129 107 118 103 122 139 139 153 158 114 109 109 105 107 91 55 2 7 25 350 349 326 16 354 1 309 284 284 304 300 306 303
152 147 158 129 181 106 229 162 145 129 122 123 119 125 98 45 13 23 20 352 343 21 33 20 348 314 315 316 300 283 287 290
186 171 178 125 197 204 174 171 152 147 133 122 127 118 127 100 67 62 349 314 1 87 51 32 345 324 329 312 308 281 298 299
257 150 183 112 257 221 183 165 157 155 142 130 148 126 141 109 111 96 18 8 343 22 59 19 8 342 344 340 14 11 342 286
292 191 141 142 247 232 180 167 159 160 151 145 143 123 107 121 133 149 258 351 4 28 75 33 9 341 352 352 14 342 360 332
219 217 156 193 231 196 201 169 168 162 156 150 153 165 139 122 136 168 255 346 62 42 48 311 342 341 355 358 351 6 13 12
267 230 145 213 215 198 201 189 159 160 154 159 162 185 161 115 132 139 324 16 46 100 358 25 348 331 344 339 325 352 19 18
306 227 154 207 242 194 193 204 172 163 166 162 158 179 146 138 128 104 92 261 45 93 25 326 300 275 223 308 313 307 359 43
223 94 318 134 295 182 215 105 149 169 159 155 166 177 145 148 162 128 131 104 109 128 176 26 6 35 33 14 354 5 23 31
214 143 209 151 256 290 199 169 164 170 170 171 170 171 145 157 163 168 172 185 96 99 160 244 57 64 62 76 74 337 60 66